This is the latest recevied weather packets stored in our database for station/object KG5WBN. If no packets are shown the sender has not sent any weather packets the latest 10 day(s).
| Time | Temp. | Humidity | Pressure | Rain* | Wind** | Luminosity | Snow |
|---|---|---|---|---|---|---|---|
| 1787601311 | 27.78° C | 57% | 1015.2 hPa | 0 mm | - | 0 W/m² | - |
| 1787601010 | 28.89° C | 55% | 1014.6 hPa | 0 mm | - | 5 W/m² | - |
| 1787600705 | 28.89° C | 55% | 1014.6 hPa | 0 mm | - | 8 W/m² | - |
| 1787600401 | 30° C | 53% | 1013.9 hPa | 0 mm | - | 13 W/m² | - |
| 1787600096 | 31.67° C | 51% | 1014.6 hPa | 0 mm | - | 21 W/m² | - |
| 1787599792 | 32.22° C | 50% | 1014.6 hPa | 0 mm | - | 23 W/m² | - |
| 1787599489 | 32.78° C | 44% | 1014.2 hPa | 0 mm | - | 48 W/m² | - |
| 1787599184 | 32.78° C | 44% | 1013.9 hPa | 0 mm | - | 52 W/m² | - |
| 1787598880 | 32.78° C | 44% | 1014.6 hPa | 0 mm | - | 55 W/m² | - |
| 1787598575 | 32.78° C | 44% | 1014.6 hPa | 0 mm | - | 62 W/m² | - |
| 1787598270 | 33.33° C | 43% | 1014.2 hPa | 0 mm | - | 87 W/m² | - |
| 1787597966 | 33.33° C | 43% | 1014.2 hPa | 0 mm | - | 97 W/m² | - |
| 1787597660 | 33.89° C | 43% | 1014.2 hPa | 0 mm | - | 134 W/m² | - |
| 1787597359 | 34.44° C | 42% | 1014.6 hPa | 0 mm | - | 159 W/m² | - |
| 1787597054 | 34.44° C | 42% | 1014.2 hPa | 0 mm | - | 192 W/m² | - |
| 1787596751 | 34.44° C | 42% | 1014.6 hPa | 0 mm | - | 234 W/m² | - |
| 1787596446 | 34.44° C | 42% | 1014.2 hPa | 0 mm | - | 191 W/m² | - |
| 1787596141 | 35° C | 42% | 1014.6 hPa | 0 mm | - | 187 W/m² | - |
| 1787595838 | 35° C | 42% | 1014.6 hPa | 0 mm | - | 183 W/m² | - |
| 1787595533 | 35° C | 42% | 1014.9 hPa | 0 mm | - | 214 W/m² | - |
| 1787595228 | 35° C | 42% | 1014.9 hPa | 0 mm | - | 267 W/m² | - |
| 1787594927 | 35° C | 42% | 1014.9 hPa | 0 mm | - | 261 W/m² | - |
| 1787594622 | 35° C | 42% | 1015.2 hPa | 0 mm | - | 264 W/m² | - |
| 1787594321 | 35° C | 42% | 1015.2 hPa | 0 mm | - | 284 W/m² | - |
| 1787594016 | 34.44° C | 43% | 1015.6 hPa | 0 mm | - | 261 W/m² | - |
* Rain latest hour (hover to see other rain measurements)
** Current wind speed in m/s (hover to see current wind gust speed)